Regional Weather Roundup
Issued by NWS

Home | Current Version | Previous Version | Text Only | Print | Product List | Glossary Off
Versions: 1 2 3 4 5 6 7 8 9 10 11 12 13 14 15 16 17 18 19 20 21 22 23 24 25 26 27 28 29 30 31 32 33 34 35 36 37 38 39 40 41 42 43 44 45 46 47 48 49 50

864
ASUS44 KJAN 210810
RWRMS

MISSISSIPPI HOURLY WEATHER ROUNDUP
NATIONAL WEATHER SERVICE JACKSON MS
200 AM CST SUN DEC 21 2014

NOTE: "FAIR: INDICATES FEW OR NO CLOUDS BELOW 12,000 FEET WITH NO
SIGNIFICANT WEATHER AND/OR OBSTRUCTIONS TO VISIBILITY.

MSZ001>002-007>008-010>013-018>021-025>028-034>036-210900-
NORTHWEST MISSISSIPPI

CITY           SKY/WX    TMP DP  RH WIND       PRES   REMARKS
CLARKSDALE     FAIR      36  34  93 CALM      30.23S
CLEVELAND      FAIR      36  35  98 CALM      30.21S
GREENWOOD      CLEAR     37  33  85 NE3       30.21F
GREENVILLE     CLEAR     37  33  85 NE3       30.20F FOG
GRENADA        FAIR      32  30  93 CALM      30.22F FOG
OLIVE BRANCH   CLEAR     34  34 100 NE3       30.24S
OXFORD         FAIR      32  30  93 CALM      30.23F
TUNICA         SUNNY     34  32  93 CALM      30.24S
$$

MSZ003>006-009-014>017-022>024-029>033-037>039-210900-
NORTHEAST MISSISSIPPI

CITY           SKY/WX    TMP DP  RH WIND       PRES   REMARKS
COLUMBUS AFB   CLEAR     33  30  91 N1        30.22
CORINTH        FAIR      30  28  93 CALM      30.24R
GOLDN TRIANGLE CLEAR     34  30  86 CALM      30.20S
STARKVILLE     FAIR      34  32  93 CALM      30.22R
TUPELO         CLEAR     33  28  81 NE6       30.23S WCI  28
$$

MSZ040-058-210900-
CENTRAL MISSISSIPPI

CITY           SKY/WX    TMP DP  RH WIND       PRES   REMARKS
JACKSON INTL   CLEAR     38  35  89 NE7       30.18F WCI  33
JACKSON HAWKNS CLEAR     39  37  92 CALM      30.18F
MERIDIAN KEY   CLEAR     34  32  92 CALM      30.19S
MERIDIAN NAS   CLEAR     34  32  92 W3        30.19S
RAYMOND        FAIR      32  28  86 CALM      30.18F FOG
VICKSBURG      CLEAR     40  37  89 N3        30.20F
$$

MSZ059>079-210900-
SOUTH MISSISSIPPI

CITY           SKY/WX    TMP DP  RH WIND       PRES   REMARKS
HATTIESBURG    CLOUDY    47  43  86 N5        30.17F
MCCOMB         CLEAR     44  40  85 NE6       30.15F
NATCHEZ        CLEAR     36  34  93 N3        30.17F
PINE BELT      CLOUDY    45  39  81 N6        30.17F
$$

MSZ080>082-210900-
COASTAL MISSISSIPPI

CITY           SKY/WX    TMP DP  RH WIND       PRES   REMARKS
BILOXI         CLOUDY    51  48  90 NE6       30.13
PASCAGOULA     CLOUDY    51  47  86 N6        30.13F
GULFPORT       CLOUDY    50  46  86 N5        30.13F
$$



USA.gov is the U.S. government's official web portal to all federal, state and local government web resources and services.